Tracking 28096 objects as of 27-Sep-2023
HD Live streaming from Space Station
objects crossing your sky now

STARLINK-2546

Track STARLINK-2546 now!
10-day predictions
STARLINK-2546 is classified as:


NORAD ID: 48296
Int'l Code: 2021-036W
Perigee: 553.3 km
Apogee: 555.5 km
Inclination: 53.1 °
Period: 95.6 minutes
Semi major axis: 6925 km
RCS: Unknown
Launch date: April 29, 2021
Source: United States (US)
Launch site: AIR FORCE EASTERN TEST RANGE (AFETR)
Your satellite tracking list
Your tracking list is empty




NASA's NSSDC Master Catalog

Two Line Element Set (TLE):
1 48296U 21036W   23270.32699420  .00010478  00000-0  72168-3 0  9997
2 48296  53.0544 136.5710 0001612  81.2972 278.8199 15.06380327133516
Source of the keplerian elements: AFSPC